Year,Month,Day,Hour,Minute,Value (Times are PST for temperature in C)
2013,07,26,00,00,15.10
2013,07,26,00,01,15.10
2013,07,26,00,02,15.10
2013,07,26,00,03,15.10
2013,07,26,00,04,15.10
2013,07,26,00,05,15.10
2013,07,26,00,06,15.10
2013,07,26,00,07,15.10
2013,07,26,00,08,15.00
2013,07,26,00,09,15.00
2013,07,26,00,10,15.00
2013,07,26,00,11,15.00
2013,07,26,00,12,15.00
2013,07,26,00,13,15.00
2013,07,26,00,14,15.00
2013,07,26,00,15,15.00
2013,07,26,00,16,14.90
2013,07,26,00,17,14.90
2013,07,26,00,18,14.90
2013,07,26,00,19,14.90
2013,07,26,00,20,14.90
2013,07,26,00,21,14.90
2013,07,26,00,22,14.80
2013,07,26,00,23,14.80
2013,07,26,00,24,14.80
2013,07,26,00,25,14.80
2013,07,26,00,26,14.80
2013,07,26,00,27,14.80
2013,07,26,00,28,14.80
2013,07,26,00,29,14.80
2013,07,26,00,30,14.80
2013,07,26,00,31,14.80
2013,07,26,00,32,14.80
2013,07,26,00,33,14.80
2013,07,26,00,34,14.70
2013,07,26,00,35,14.80
2013,07,26,00,36,14.80
2013,07,26,00,37,14.80
2013,07,26,00,38,14.70
2013,07,26,00,39,14.70
2013,07,26,00,40,14.70
2013,07,26,00,41,14.70
2013,07,26,00,42,14.70
2013,07,26,00,43,14.70
2013,07,26,00,44,14.80
2013,07,26,00,45,14.80
2013,07,26,00,46,14.80
2013,07,26,00,47,14.70
2013,07,26,00,48,14.70
2013,07,26,00,49,14.70
2013,07,26,00,50,14.70
2013,07,26,00,51,14.70
2013,07,26,00,52,14.70
2013,07,26,00,53,14.70
2013,07,26,00,54,14.70
2013,07,26,00,55,14.70
2013,07,26,00,56,14.70
2013,07,26,00,57,14.70
2013,07,26,00,58,14.70
2013,07,26,00,59,14.70
2013,07,26,01,00,14.70
2013,07,26,01,01,14.70
2013,07,26,01,02,14.70
2013,07,26,01,03,14.70
2013,07,26,01,04,14.70
2013,07,26,01,05,14.70
2013,07,26,01,06,14.70
2013,07,26,01,07,14.70
2013,07,26,01,08,14.70
2013,07,26,01,09,14.70
2013,07,26,01,10,14.70
2013,07,26,01,11,14.70
2013,07,26,01,12,14.70
2013,07,26,01,13,14.60
2013,07,26,01,14,14.60
2013,07,26,01,15,14.60
2013,07,26,01,16,14.60
2013,07,26,01,17,14.50
2013,07,26,01,18,14.50
2013,07,26,01,19,14.50
2013,07,26,01,20,14.40
2013,07,26,01,21,14.40
2013,07,26,01,22,14.40
2013,07,26,01,23,14.30
2013,07,26,01,24,14.30
2013,07,26,01,25,14.30
2013,07,26,01,26,14.30
2013,07,26,01,27,14.30
2013,07,26,01,28,14.30
2013,07,26,01,29,14.30
2013,07,26,01,30,14.30
2013,07,26,01,31,14.30
2013,07,26,01,32,14.30
2013,07,26,01,33,14.30
2013,07,26,01,34,14.30
2013,07,26,01,35,14.30
2013,07,26,01,36,14.30
2013,07,26,01,37,14.30
2013,07,26,01,38,14.30
2013,07,26,01,39,14.30
2013,07,26,01,40,14.30
2013,07,26,01,41,14.30
2013,07,26,01,42,14.30
2013,07,26,01,43,14.30
2013,07,26,01,44,14.30
2013,07,26,01,45,14.30
2013,07,26,01,46,14.30
2013,07,26,01,47,14.30
2013,07,26,01,48,14.30
2013,07,26,01,49,14.30
2013,07,26,01,50,14.30
2013,07,26,01,51,14.30
2013,07,26,01,52,14.30
2013,07,26,01,53,14.30
2013,07,26,01,54,14.30
2013,07,26,01,55,14.30
2013,07,26,01,56,14.30
2013,07,26,01,57,14.20
2013,07,26,01,58,14.20
2013,07,26,01,59,14.20
2013,07,26,02,00,14.20
2013,07,26,02,01,14.20
2013,07,26,02,02,14.20
2013,07,26,02,03,14.20
2013,07,26,02,04,14.20
2013,07,26,02,05,14.20
2013,07,26,02,06,14.20
2013,07,26,02,07,14.30
2013,07,26,02,08,14.30
2013,07,26,02,09,14.30
2013,07,26,02,10,14.30
2013,07,26,02,11,14.40
2013,07,26,02,12,14.40
2013,07,26,02,13,14.50
2013,07,26,02,14,14.50
2013,07,26,02,15,14.60
2013,07,26,02,16,14.60
2013,07,26,02,17,14.60
2013,07,26,02,18,14.60
2013,07,26,02,19,14.60
2013,07,26,02,20,14.70
2013,07,26,02,21,14.70
2013,07,26,02,22,14.70
2013,07,26,02,23,14.70
2013,07,26,02,24,14.80
2013,07,26,02,25,14.80
2013,07,26,02,26,14.80
2013,07,26,02,27,14.80
2013,07,26,02,28,14.90
2013,07,26,02,29,14.90
2013,07,26,02,30,14.90
2013,07,26,02,31,14.90
2013,07,26,02,32,14.90
2013,07,26,02,33,14.90
2013,07,26,02,34,14.90
2013,07,26,02,35,14.90
2013,07,26,02,36,14.90
2013,07,26,02,37,14.90
2013,07,26,02,38,14.90
2013,07,26,02,39,15.00
2013,07,26,02,40,15.00
2013,07,26,02,41,15.10
2013,07,26,02,42,15.10
2013,07,26,02,43,15.20
2013,07,26,02,44,15.20
2013,07,26,02,45,15.20
2013,07,26,02,46,15.30
2013,07,26,02,47,15.30
2013,07,26,02,48,15.30
2013,07,26,02,49,15.30
2013,07,26,02,50,15.40
2013,07,26,02,51,15.40
2013,07,26,02,52,15.40
2013,07,26,02,53,15.40
2013,07,26,02,54,15.50
2013,07,26,02,55,15.50
2013,07,26,02,56,15.50
2013,07,26,02,57,15.50
2013,07,26,02,58,15.50
2013,07,26,02,59,15.50
2013,07,26,03,00,15.50
2013,07,26,03,01,15.50
2013,07,26,03,02,15.50
2013,07,26,03,03,15.50
2013,07,26,03,04,15.50
2013,07,26,03,05,15.60
2013,07,26,03,06,15.60
2013,07,26,03,07,15.60
2013,07,26,03,08,15.60
2013,07,26,03,09,15.60
2013,07,26,03,10,15.60
2013,07,26,03,11,15.60
2013,07,26,03,12,15.60
2013,07,26,03,13,15.70
2013,07,26,03,14,15.60
2013,07,26,03,15,15.60
2013,07,26,03,16,15.60
2013,07,26,03,17,15.60
2013,07,26,03,18,15.60
2013,07,26,03,19,15.60
2013,07,26,03,20,15.60
2013,07,26,03,21,15.60
2013,07,26,03,22,15.50
2013,07,26,03,23,15.50
2013,07,26,03,24,15.50
2013,07,26,03,25,15.40
2013,07,26,03,26,15.30
2013,07,26,03,27,15.20
2013,07,26,03,28,15.10
2013,07,26,03,29,15.00
2013,07,26,03,30,14.90
2013,07,26,03,31,14.80
2013,07,26,03,32,14.70
2013,07,26,03,33,14.60
2013,07,26,03,34,14.50
2013,07,26,03,35,14.40
2013,07,26,03,36,14.30
2013,07,26,03,37,14.20
2013,07,26,03,38,14.10
2013,07,26,03,39,14.00
2013,07,26,03,40,13.90
2013,07,26,03,41,13.90
2013,07,26,03,42,13.80
2013,07,26,03,43,13.80
2013,07,26,03,44,13.70
2013,07,26,03,45,13.60
2013,07,26,03,46,13.60
2013,07,26,03,47,13.50
2013,07,26,03,48,13.40
2013,07,26,03,49,13.40
2013,07,26,03,50,13.30
2013,07,26,03,51,13.30
2013,07,26,03,52,13.30
2013,07,26,03,53,13.20
2013,07,26,03,54,13.20
2013,07,26,03,55,13.20
2013,07,26,03,56,13.10
2013,07,26,03,57,13.10
2013,07,26,03,58,13.00
2013,07,26,03,59,13.00
2013,07,26,04,00,12.90
2013,07,26,04,01,12.90
2013,07,26,04,02,12.90
2013,07,26,04,03,12.90
2013,07,26,04,04,12.80
2013,07,26,04,05,12.80
2013,07,26,04,06,12.80
2013,07,26,04,07,12.80
2013,07,26,04,08,12.70
2013,07,26,04,09,12.70
2013,07,26,04,10,12.70
2013,07,26,04,11,12.70
2013,07,26,04,12,12.70
2013,07,26,04,13,12.60
2013,07,26,04,14,12.60
2013,07,26,04,15,12.60
2013,07,26,04,16,12.50
2013,07,26,04,17,12.50
2013,07,26,04,18,12.50
2013,07,26,04,19,12.40
2013,07,26,04,20,12.40
2013,07,26,04,21,12.40
2013,07,26,04,22,12.40
2013,07,26,04,23,12.30
2013,07,26,04,24,12.30
2013,07,26,04,25,12.30
2013,07,26,04,26,12.30
2013,07,26,04,27,12.20
2013,07,26,04,28,12.20
2013,07,26,04,29,12.20
2013,07,26,04,30,12.20
2013,07,26,04,31,12.20
2013,07,26,04,32,12.20
2013,07,26,04,33,12.10
2013,07,26,04,34,12.10
2013,07,26,04,35,12.10
2013,07,26,04,36,12.10
2013,07,26,04,37,12.10
2013,07,26,04,38,12.00
2013,07,26,04,39,12.00
2013,07,26,04,40,12.00
2013,07,26,04,41,12.00
2013,07,26,04,42,11.90
2013,07,26,04,43,11.90
2013,07,26,04,44,11.90
2013,07,26,04,45,11.90
2013,07,26,04,46,11.90
2013,07,26,04,47,11.90
2013,07,26,04,48,11.90
2013,07,26,04,49,11.90
2013,07,26,04,50,11.90
2013,07,26,04,51,11.90
2013,07,26,04,52,11.90
2013,07,26,04,53,11.90
2013,07,26,04,54,11.80
2013,07,26,04,55,11.80
2013,07,26,04,56,11.80
2013,07,26,04,57,11.80
2013,07,26,04,58,11.80
2013,07,26,04,59,11.70
2013,07,26,05,00,11.70
2013,07,26,05,01,11.70
2013,07,26,05,02,11.60
2013,07,26,05,03,11.60
2013,07,26,05,04,11.60
2013,07,26,05,05,11.60
2013,07,26,05,06,11.60
2013,07,26,05,07,11.60
2013,07,26,05,08,11.60
2013,07,26,05,09,11.50
2013,07,26,05,10,11.50
2013,07,26,05,11,11.50
2013,07,26,05,12,11.50
2013,07,26,05,13,11.50
2013,07,26,05,14,11.50
2013,07,26,05,15,11.50
2013,07,26,05,16,11.50
2013,07,26,05,17,11.40
2013,07,26,05,18,11.40
2013,07,26,05,19,11.40
2013,07,26,05,20,11.40
2013,07,26,05,21,11.40
2013,07,26,05,22,11.30
2013,07,26,05,23,11.30
2013,07,26,05,24,11.30
2013,07,26,05,25,11.30
2013,07,26,05,26,11.30
2013,07,26,05,27,11.30
2013,07,26,05,28,11.30
2013,07,26,05,29,11.30
2013,07,26,05,30,11.30
2013,07,26,05,31,11.30
2013,07,26,05,32,11.30
2013,07,26,05,33,11.30
2013,07,26,05,34,11.30
2013,07,26,05,35,11.30
2013,07,26,05,36,11.30
2013,07,26,05,37,11.30
2013,07,26,05,38,11.20
2013,07,26,05,39,11.20
2013,07,26,05,40,11.20
2013,07,26,05,41,11.20
2013,07,26,05,42,11.20
2013,07,26,05,43,11.20
2013,07,26,05,44,11.20
2013,07,26,05,45,11.20
2013,07,26,05,46,11.20
2013,07,26,05,47,11.20
2013,07,26,05,48,11.20
2013,07,26,05,49,11.10
2013,07,26,05,50,11.10
2013,07,26,05,51,11.10
2013,07,26,05,52,11.10
2013,07,26,05,53,11.10
2013,07,26,05,54,11.10
2013,07,26,05,55,11.10
2013,07,26,05,56,11.00
2013,07,26,05,57,11.00
2013,07,26,05,58,11.00
2013,07,26,05,59,11.00
2013,07,26,06,00,11.00
2013,07,26,06,01,10.90
2013,07,26,06,02,10.90
2013,07,26,06,03,10.90
2013,07,26,06,04,10.90
2013,07,26,06,05,10.90
2013,07,26,06,06,10.90
2013,07,26,06,07,10.90
2013,07,26,06,08,10.90
2013,07,26,06,09,10.90
2013,07,26,06,10,10.90
2013,07,26,06,11,10.90
2013,07,26,06,12,10.90
2013,07,26,06,13,10.90
2013,07,26,06,14,10.90
2013,07,26,06,15,10.90
2013,07,26,06,16,10.90
2013,07,26,06,17,10.90
2013,07,26,06,18,10.90
2013,07,26,06,19,10.90
2013,07,26,06,20,10.90
2013,07,26,06,21,10.90
2013,07,26,06,22,10.90
2013,07,26,06,23,10.90
2013,07,26,06,24,10.90
2013,07,26,06,25,10.90
2013,07,26,06,26,11.00
2013,07,26,06,27,11.00
2013,07,26,06,28,11.00
2013,07,26,06,29,11.10
2013,07,26,06,30,11.10
2013,07,26,06,31,11.10
2013,07,26,06,32,11.10
2013,07,26,06,33,11.10
2013,07,26,06,34,11.10
2013,07,26,06,35,11.20
2013,07,26,06,36,11.20
2013,07,26,06,37,11.20
2013,07,26,06,38,11.30
2013,07,26,06,39,11.40
2013,07,26,06,40,11.40
2013,07,26,06,41,11.50
2013,07,26,06,42,11.60
2013,07,26,06,43,11.60
2013,07,26,06,44,11.70
2013,07,26,06,45,11.70
2013,07,26,06,46,11.80
2013,07,26,06,47,11.80
2013,07,26,06,48,11.90
2013,07,26,06,49,11.90
2013,07,26,06,50,12.00
2013,07,26,06,51,12.00
2013,07,26,06,52,12.10
2013,07,26,06,53,12.10
2013,07,26,06,54,12.20
2013,07,26,06,55,12.20
2013,07,26,06,56,12.30
2013,07,26,06,57,12.30
2013,07,26,06,58,12.30
2013,07,26,06,59,12.40
2013,07,26,07,00,12.40
2013,07,26,07,01,12.40
2013,07,26,07,02,12.50
2013,07,26,07,03,12.60
2013,07,26,07,04,12.60
2013,07,26,07,05,12.70
2013,07,26,07,06,12.70
2013,07,26,07,07,12.80
2013,07,26,07,08,12.80
2013,07,26,07,09,12.90
2013,07,26,07,10,12.90
2013,07,26,07,11,13.00
2013,07,26,07,12,13.00
2013,07,26,07,13,13.10
2013,07,26,07,14,13.20
2013,07,26,07,15,13.20
2013,07,26,07,16,13.30
2013,07,26,07,17,13.40
2013,07,26,07,18,13.40
2013,07,26,07,19,13.50
2013,07,26,07,20,13.60
2013,07,26,07,21,13.70
2013,07,26,07,22,13.80
2013,07,26,07,23,13.80
2013,07,26,07,24,13.90
2013,07,26,07,25,14.00
2013,07,26,07,26,14.10
2013,07,26,07,27,14.10
2013,07,26,07,28,14.20
2013,07,26,07,29,14.30
2013,07,26,07,30,14.40
2013,07,26,07,31,14.50
2013,07,26,07,32,14.60
2013,07,26,07,33,14.70
2013,07,26,07,34,14.80
2013,07,26,07,35,14.90
2013,07,26,07,36,15.00
2013,07,26,07,37,15.10
2013,07,26,07,38,15.20
2013,07,26,07,39,15.20
2013,07,26,07,40,15.30
2013,07,26,07,41,15.40
2013,07,26,07,42,15.50
2013,07,26,07,43,15.60
2013,07,26,07,44,15.70
2013,07,26,07,45,15.80
2013,07,26,07,46,15.80
2013,07,26,07,47,15.90
2013,07,26,07,48,16.00
2013,07,26,07,49,16.00
2013,07,26,07,50,16.10
2013,07,26,07,51,16.20
2013,07,26,07,52,16.30
2013,07,26,07,53,16.30
2013,07,26,07,54,16.40
2013,07,26,07,55,16.50
2013,07,26,07,56,16.60
2013,07,26,07,57,16.60
2013,07,26,07,58,16.70
2013,07,26,07,59,16.80
2013,07,26,08,00,16.90
2013,07,26,08,01,17.00
2013,07,26,08,02,17.10
2013,07,26,08,03,17.30
2013,07,26,08,04,17.40
2013,07,26,08,05,17.60
2013,07,26,08,06,17.70
2013,07,26,08,07,17.90
2013,07,26,08,08,18.00
2013,07,26,08,09,18.20
2013,07,26,08,10,18.30
2013,07,26,08,11,18.40
2013,07,26,08,12,18.60
2013,07,26,08,13,18.70
2013,07,26,08,14,18.80
2013,07,26,08,15,18.90
2013,07,26,08,16,19.00
2013,07,26,08,17,19.10
2013,07,26,08,18,19.20
2013,07,26,08,19,19.30
2013,07,26,08,20,19.30
2013,07,26,08,21,19.30
2013,07,26,08,22,19.30
2013,07,26,08,23,19.30
2013,07,26,08,24,19.30
2013,07,26,08,25,19.40
2013,07,26,08,26,19.40
2013,07,26,08,27,19.50
2013,07,26,08,28,19.60
2013,07,26,08,29,19.60
2013,07,26,08,30,19.70
2013,07,26,08,31,19.80
2013,07,26,08,32,19.80
2013,07,26,08,33,19.80
2013,07,26,08,34,19.70
2013,07,26,08,35,19.60
2013,07,26,08,36,19.40
2013,07,26,08,37,19.20
2013,07,26,08,38,19.00
2013,07,26,08,39,18.90
2013,07,26,08,40,18.70
2013,07,26,08,41,18.60
2013,07,26,08,42,18.50
2013,07,26,08,43,18.50
2013,07,26,08,44,18.40
2013,07,26,08,45,18.40
2013,07,26,08,46,18.30
2013,07,26,08,47,18.30
2013,07,26,08,48,18.40
2013,07,26,08,49,18.40
2013,07,26,08,50,18.40
2013,07,26,08,51,18.40
2013,07,26,08,52,18.40
2013,07,26,08,53,18.50
2013,07,26,08,54,18.50
2013,07,26,08,55,18.60
2013,07,26,08,56,18.60
2013,07,26,08,57,18.70
2013,07,26,08,58,18.70
2013,07,26,08,59,18.70
2013,07,26,09,00,18.70
2013,07,26,09,01,18.70
2013,07,26,09,02,18.80
2013,07,26,09,03,18.80
2013,07,26,09,04,18.80
2013,07,26,09,05,18.80
2013,07,26,09,06,18.80
2013,07,26,09,07,18.80
2013,07,26,09,08,18.80
2013,07,26,09,09,18.80
2013,07,26,09,10,18.90
2013,07,26,09,11,18.90
2013,07,26,09,12,18.90
2013,07,26,09,13,18.90
2013,07,26,09,14,18.90
2013,07,26,09,15,18.90
2013,07,26,09,16,18.90
2013,07,26,09,17,18.90
2013,07,26,09,18,18.90
2013,07,26,09,19,19.00
2013,07,26,09,20,19.00
2013,07,26,09,21,19.00
2013,07,26,09,22,19.00
2013,07,26,09,23,19.00
2013,07,26,09,24,19.00
2013,07,26,09,25,19.10
2013,07,26,09,26,19.10
2013,07,26,09,27,19.10
2013,07,26,09,28,19.10
2013,07,26,09,29,19.20
2013,07,26,09,30,19.20
2013,07,26,09,31,19.20
2013,07,26,09,32,19.20
2013,07,26,09,33,19.30
2013,07,26,09,34,19.30
2013,07,26,09,35,19.30
2013,07,26,09,36,19.30
2013,07,26,09,37,19.40
2013,07,26,09,38,19.40
2013,07,26,09,39,19.40
2013,07,26,09,40,19.40
2013,07,26,09,41,19.40
2013,07,26,09,42,19.40
2013,07,26,09,43,19.30
2013,07,26,09,44,19.30
2013,07,26,09,45,19.30
2013,07,26,09,46,19.30
2013,07,26,09,47,19.40
2013,07,26,09,48,19.40
2013,07,26,09,49,19.50
2013,07,26,09,50,19.50
2013,07,26,09,51,19.60
2013,07,26,09,52,19.70
2013,07,26,09,53,19.80
2013,07,26,09,54,19.90
2013,07,26,09,55,19.90
2013,07,26,09,56,20.00
2013,07,26,09,57,20.10
2013,07,26,09,58,20.20
2013,07,26,09,59,20.30
2013,07,26,10,00,20.30
2013,07,26,10,01,20.40
2013,07,26,10,02,20.50
2013,07,26,10,03,20.50
2013,07,26,10,04,20.50
2013,07,26,10,05,20.40
2013,07,26,10,06,20.40
2013,07,26,10,07,20.50
2013,07,26,10,08,20.50
2013,07,26,10,09,20.60
2013,07,26,10,10,20.60
2013,07,26,10,11,20.70
2013,07,26,10,12,20.80
2013,07,26,10,13,20.90
2013,07,26,10,14,21.00
2013,07,26,10,15,21.10
2013,07,26,10,16,21.10
2013,07,26,10,17,21.20
2013,07,26,10,18,21.20
2013,07,26,10,19,21.20
2013,07,26,10,20,21.20
2013,07,26,10,21,21.30
2013,07,26,10,22,21.30
2013,07,26,10,23,21.30
2013,07,26,10,24,21.30
2013,07,26,10,25,21.30
2013,07,26,10,26,21.30
2013,07,26,10,27,21.40
2013,07,26,10,28,21.40
2013,07,26,10,29,21.50
2013,07,26,10,30,21.50
2013,07,26,10,31,21.50
2013,07,26,10,32,21.60
2013,07,26,10,33,21.50
2013,07,26,10,34,21.50
2013,07,26,10,35,21.40
2013,07,26,10,36,21.40
2013,07,26,10,37,21.30
2013,07,26,10,38,21.30
2013,07,26,10,39,21.30
2013,07,26,10,40,21.30
2013,07,26,10,41,21.30
2013,07,26,10,42,21.30
2013,07,26,10,43,21.30
2013,07,26,10,44,21.30
2013,07,26,10,45,21.30
2013,07,26,10,46,21.30
2013,07,26,10,47,21.20
2013,07,26,10,48,21.20
2013,07,26,10,49,21.20
2013,07,26,10,50,21.10
2013,07,26,10,51,21.00
2013,07,26,10,52,21.00
2013,07,26,10,53,20.90
2013,07,26,10,54,20.80
2013,07,26,10,55,20.70
2013,07,26,10,56,20.60
2013,07,26,10,57,20.50
2013,07,26,10,58,20.40
2013,07,26,10,59,20.40
2013,07,26,11,00,20.40
2013,07,26,11,01,20.30
2013,07,26,11,02,20.30
2013,07,26,11,03,20.30
2013,07,26,11,04,20.30
2013,07,26,11,05,20.30
2013,07,26,11,06,20.30
2013,07,26,11,07,20.30
2013,07,26,11,08,20.30
2013,07,26,11,09,20.30
2013,07,26,11,10,20.30
2013,07,26,11,11,20.30
2013,07,26,11,12,20.30
2013,07,26,11,13,20.20
2013,07,26,11,14,20.20
2013,07,26,11,15,20.20
2013,07,26,11,16,20.20
2013,07,26,11,17,20.20
2013,07,26,11,18,20.20
2013,07,26,11,19,20.20
2013,07,26,11,20,20.20
2013,07,26,11,21,20.20
2013,07,26,11,22,20.20
2013,07,26,11,23,20.20
2013,07,26,11,24,20.10
2013,07,26,11,25,20.10
2013,07,26,11,26,20.10
2013,07,26,11,27,20.10
2013,07,26,11,28,20.10
2013,07,26,11,29,20.10
2013,07,26,11,30,20.20
2013,07,26,11,31,20.30
2013,07,26,11,32,20.40
2013,07,26,11,33,20.50
2013,07,26,11,34,20.50
2013,07,26,11,35,20.60
2013,07,26,11,36,20.60
2013,07,26,11,37,20.50
2013,07,26,11,38,20.40
2013,07,26,11,39,20.40
2013,07,26,11,40,20.40
2013,07,26,11,41,20.40
2013,07,26,11,42,20.50
2013,07,26,11,43,20.60
2013,07,26,11,44,20.70
2013,07,26,11,45,20.80
2013,07,26,11,46,20.80
2013,07,26,11,47,20.80
2013,07,26,11,48,20.80
2013,07,26,11,49,20.80
2013,07,26,11,50,20.70
2013,07,26,11,51,20.70
2013,07,26,11,52,20.80
2013,07,26,11,53,20.80
2013,07,26,11,54,20.80
2013,07,26,11,55,20.90
2013,07,26,11,56,20.90
2013,07,26,11,57,21.00
2013,07,26,11,58,21.10
2013,07,26,11,59,21.10
2013,07,26,12,00,21.20
2013,07,26,12,01,21.30
2013,07,26,12,02,21.40
2013,07,26,12,03,21.40
2013,07,26,12,04,21.40
2013,07,26,12,05,21.50
2013,07,26,12,06,21.60
2013,07,26,12,07,21.70
2013,07,26,12,08,21.70
2013,07,26,12,09,21.70
2013,07,26,12,10,21.70
2013,07,26,12,11,21.70
2013,07,26,12,12,21.60
2013,07,26,12,13,21.50
2013,07,26,12,14,21.50
2013,07,26,12,15,21.40
2013,07,26,12,16,21.40
2013,07,26,12,17,21.40
2013,07,26,12,18,21.30
2013,07,26,12,19,21.30
2013,07,26,12,20,21.30
2013,07,26,12,21,21.40
2013,07,26,12,22,21.40
2013,07,26,12,23,21.40
2013,07,26,12,24,21.40
2013,07,26,12,25,21.30
2013,07,26,12,26,21.20
2013,07,26,12,27,21.10
2013,07,26,12,28,21.00
2013,07,26,12,29,20.90
2013,07,26,12,30,20.90
2013,07,26,12,31,20.80
2013,07,26,12,32,20.80
2013,07,26,12,33,20.80
2013,07,26,12,34,20.80
2013,07,26,12,35,20.90
2013,07,26,12,36,20.90
2013,07,26,12,37,21.00
2013,07,26,12,38,21.00
2013,07,26,12,39,21.10
2013,07,26,12,40,21.10
2013,07,26,12,41,21.10
2013,07,26,12,42,21.10
2013,07,26,12,43,21.10
2013,07,26,12,44,21.00
2013,07,26,12,45,21.00
2013,07,26,12,46,21.00
2013,07,26,12,47,21.00
2013,07,26,12,48,21.00
2013,07,26,12,49,20.90
2013,07,26,12,50,21.00
2013,07,26,12,51,21.00
2013,07,26,12,52,21.10
2013,07,26,12,53,21.20
2013,07,26,12,54,21.30
2013,07,26,12,55,21.50
2013,07,26,12,56,21.40
2013,07,26,12,57,21.30
2013,07,26,12,58,21.20
2013,07,26,12,59,21.20
2013,07,26,13,00,21.20
2013,07,26,13,01,21.20
2013,07,26,13,02,21.20
2013,07,26,13,03,21.30
2013,07,26,13,04,21.30
2013,07,26,13,05,21.30
2013,07,26,13,06,21.30
2013,07,26,13,07,21.30
2013,07,26,13,08,21.30
2013,07,26,13,09,21.30
2013,07,26,13,10,21.20
2013,07,26,13,11,21.10
2013,07,26,13,12,21.10
2013,07,26,13,13,21.00
2013,07,26,13,14,21.00
2013,07,26,13,15,21.10
2013,07,26,13,16,21.10
2013,07,26,13,17,21.10
2013,07,26,13,18,21.20
2013,07,26,13,19,21.20
2013,07,26,13,20,21.20
2013,07,26,13,21,21.30
2013,07,26,13,22,21.30
2013,07,26,13,23,21.40
2013,07,26,13,24,21.50
2013,07,26,13,25,21.50
2013,07,26,13,26,21.50
2013,07,26,13,27,21.50
2013,07,26,13,28,21.60
2013,07,26,13,29,21.60
2013,07,26,13,30,21.60
2013,07,26,13,31,21.70
2013,07,26,13,32,21.70
2013,07,26,13,33,21.80
2013,07,26,13,34,21.80
2013,07,26,13,35,21.90
2013,07,26,13,36,21.90
2013,07,26,13,37,21.90
2013,07,26,13,38,21.90
2013,07,26,13,39,22.00
2013,07,26,13,40,22.10
2013,07,26,13,41,22.10
2013,07,26,13,42,22.10
2013,07,26,13,43,22.10
2013,07,26,13,44,22.10
2013,07,26,13,45,22.10
2013,07,26,13,46,22.10
2013,07,26,13,47,22.20
2013,07,26,13,48,22.20
2013,07,26,13,49,22.20
2013,07,26,13,50,22.30
2013,07,26,13,51,22.30
2013,07,26,13,52,22.30
2013,07,26,13,53,22.20
2013,07,26,13,54,22.20
2013,07,26,13,55,22.30
2013,07,26,13,56,22.30
2013,07,26,13,57,22.30
2013,07,26,13,58,22.40
2013,07,26,13,59,22.60
2013,07,26,14,00,22.70
2013,07,26,14,01,22.70
2013,07,26,14,02,22.80
2013,07,26,14,03,22.80
2013,07,26,14,04,22.90
2013,07,26,14,05,22.90
2013,07,26,14,06,22.90
2013,07,26,14,07,22.90
2013,07,26,14,08,22.90
2013,07,26,14,09,23.00
2013,07,26,14,10,23.00
2013,07,26,14,11,23.00
2013,07,26,14,12,23.00
2013,07,26,14,13,23.00
2013,07,26,14,14,23.00
2013,07,26,14,15,23.00
2013,07,26,14,16,23.00
2013,07,26,14,17,23.10
2013,07,26,14,18,23.10
2013,07,26,14,19,23.10
2013,07,26,14,20,23.20
2013,07,26,14,21,23.20
2013,07,26,14,22,23.20
2013,07,26,14,23,23.20
2013,07,26,14,24,23.10
2013,07,26,14,25,23.10
2013,07,26,14,26,23.20
2013,07,26,14,27,23.20
2013,07,26,14,28,23.30
2013,07,26,14,29,23.40
2013,07,26,14,30,23.40
2013,07,26,14,31,23.50
2013,07,26,14,32,23.50
2013,07,26,14,33,23.60
2013,07,26,14,34,23.60
2013,07,26,14,35,23.60
2013,07,26,14,36,23.60
2013,07,26,14,37,23.60
2013,07,26,14,38,23.60
2013,07,26,14,39,23.50
2013,07,26,14,40,23.50
2013,07,26,14,41,23.50
2013,07,26,14,42,23.50
2013,07,26,14,43,23.50
2013,07,26,14,44,23.50
2013,07,26,14,45,23.50
2013,07,26,14,46,23.50
2013,07,26,14,47,23.60
2013,07,26,14,48,23.60
2013,07,26,14,49,23.70
2013,07,26,14,50,23.70
2013,07,26,14,51,23.70
2013,07,26,14,52,23.70
2013,07,26,14,53,23.70
2013,07,26,14,54,23.70
2013,07,26,14,55,23.70
2013,07,26,14,56,23.70
2013,07,26,14,57,23.60
2013,07,26,14,58,23.60
2013,07,26,14,59,23.60
2013,07,26,15,00,23.50
2013,07,26,15,01,23.50
2013,07,26,15,02,23.40
2013,07,26,15,03,23.40
2013,07,26,15,04,23.50
2013,07,26,15,05,23.50
2013,07,26,15,06,23.50
2013,07,26,15,07,23.40
2013,07,26,15,08,23.40
2013,07,26,15,09,23.40
2013,07,26,15,10,23.40
2013,07,26,15,11,23.50
2013,07,26,15,12,23.50
2013,07,26,15,13,23.50
2013,07,26,15,14,23.50
2013,07,26,15,15,23.50
2013,07,26,15,16,23.50
2013,07,26,15,17,23.40
2013,07,26,15,18,23.40
2013,07,26,15,19,23.40
2013,07,26,15,20,23.40
2013,07,26,15,21,23.30
2013,07,26,15,22,23.30
2013,07,26,15,23,23.30
2013,07,26,15,24,23.30
2013,07,26,15,25,23.30
2013,07,26,15,26,23.30
2013,07,26,15,27,23.40
2013,07,26,15,28,23.40
2013,07,26,15,29,23.40
2013,07,26,15,30,23.40
2013,07,26,15,31,23.50
2013,07,26,15,32,23.50
2013,07,26,15,33,23.40
2013,07,26,15,34,23.40
2013,07,26,15,35,23.40
2013,07,26,15,36,23.30
2013,07,26,15,37,23.30
2013,07,26,15,38,23.30
2013,07,26,15,39,23.30
2013,07,26,15,40,23.20
2013,07,26,15,41,23.20
2013,07,26,15,42,23.30
2013,07,26,15,43,23.30
2013,07,26,15,44,23.30
2013,07,26,15,45,23.30
2013,07,26,15,46,23.30
2013,07,26,15,47,23.30
2013,07,26,15,48,23.30
2013,07,26,15,49,23.30
2013,07,26,15,50,23.40
2013,07,26,15,51,23.40
2013,07,26,15,52,23.40
2013,07,26,15,53,23.50
2013,07,26,15,54,23.40
2013,07,26,15,55,23.40
2013,07,26,15,56,23.30
2013,07,26,15,57,23.20
2013,07,26,15,58,23.10
2013,07,26,15,59,23.00
2013,07,26,16,00,23.00
2013,07,26,16,01,22.90
2013,07,26,16,02,22.90
2013,07,26,16,03,22.90
2013,07,26,16,04,22.80
2013,07,26,16,05,22.80
2013,07,26,16,06,22.70
2013,07,26,16,07,22.70
2013,07,26,16,08,22.60
2013,07,26,16,09,22.50
2013,07,26,16,10,22.30
2013,07,26,16,11,22.20
2013,07,26,16,12,22.20
2013,07,26,16,13,22.20
2013,07,26,16,14,22.20
2013,07,26,16,15,22.10
2013,07,26,16,16,22.10
2013,07,26,16,17,22.10
2013,07,26,16,18,22.10
2013,07,26,16,19,22.10
2013,07,26,16,20,22.00
2013,07,26,16,21,22.00
2013,07,26,16,22,21.90
2013,07,26,16,23,21.90
2013,07,26,16,24,21.90
2013,07,26,16,25,21.90
2013,07,26,16,26,21.90
2013,07,26,16,27,21.90
2013,07,26,16,28,21.90
2013,07,26,16,29,21.90
2013,07,26,16,30,21.90
2013,07,26,16,31,21.90
2013,07,26,16,32,22.00
2013,07,26,16,33,22.00
2013,07,26,16,34,22.10
2013,07,26,16,35,22.10
2013,07,26,16,36,22.20
2013,07,26,16,37,22.20
2013,07,26,16,38,22.20
2013,07,26,16,39,22.10
2013,07,26,16,40,22.10
2013,07,26,16,41,22.10
2013,07,26,16,42,22.10
2013,07,26,16,43,22.10
2013,07,26,16,44,22.10
2013,07,26,16,45,22.10
2013,07,26,16,46,22.10
2013,07,26,16,47,22.10
2013,07,26,16,48,22.10
2013,07,26,16,49,22.10
2013,07,26,16,50,22.10
2013,07,26,16,51,22.10
2013,07,26,16,52,22.10
2013,07,26,16,53,22.20
2013,07,26,16,54,22.20
2013,07,26,16,55,22.20
2013,07,26,16,56,22.20
2013,07,26,16,57,22.20
2013,07,26,16,58,22.20
2013,07,26,16,59,22.20
2013,07,26,17,00,22.20
2013,07,26,17,01,22.20
2013,07,26,17,02,22.20
2013,07,26,17,03,22.20
2013,07,26,17,04,22.30
2013,07,26,17,05,22.20
2013,07,26,17,06,22.30
2013,07,26,17,07,22.20
2013,07,26,17,08,22.20
2013,07,26,17,09,22.20
2013,07,26,17,10,22.30
2013,07,26,17,11,22.30
2013,07,26,17,12,22.30
2013,07,26,17,13,22.30
2013,07,26,17,14,22.30
2013,07,26,17,15,22.30
2013,07,26,17,16,22.30
2013,07,26,17,17,22.20
2013,07,26,17,18,22.20
2013,07,26,17,19,22.10